Weather History for Vernon, TX

Change the Weather History Date:

Friday, January 11, 2013

  Actual Average (KLTS) Record (KLTS)
Temperature  
Mean Temperature 57 °F -  
Max Temperature 71 °F 48 °F 75 °F (1999)
Min Temperature 43 °F 26 °F 10 °F (2011)
Degree Days  
Heating Degree Days 8    
Growing Degree Days 7 (Base 50)    
Moisture  
Dew Point 44 °F    
Average Humidity 67    
Maximum Humidity 90    
Minimum Humidity 43    
Precipitation  
Precipitation 0.00 in - - ()
Sea Level Pressure  
Sea Level Pressure 29.76 in    
Wind  
Wind Speed 11 mph (SSW)    
Max Wind Speed 23 mph    
Max Gust Speed 32 mph    
Visibility 10 miles    
Events      
Averages and records for this station are not official NWS values.
T = Trace of Precipitation, MM = Missing Value Source: NWS Daily Summary

Daily Weather History Graph

Daily Weather History Graph

Search for Another Location

Airport:

Trip Planner

Search our weather history database for the weather conditions in past years. The results will help you decide how hot, cold, wet, or windy it might be!

Date:

Astronomy

Jan. 11, 2013 Rise Set
Actual Time 7:43 AM CST 5:47 PM CST
Civil Twilight 7:16 AM CST 6:14 PM CST
Nautical Twilight 6:45 AM CST 6:45 PM CST
Astronomical Twilight 6:14 AM CST 7:15 PM CST
Moon 7:19 AM CST (1/11) 6:04 PM CST (1/11)
Length of Visible Light 10h 58m
Length of Day
10h 03m
Waning Crescent, 0% of the Moon is Illuminated
Jan 11
Waning Crescent
Jan 11
New
Jan 18
First Quarter
Jan 26
Full
Feb 3
Last Quarter

Hourly Weather History & Observations

Time (CST) Temp. Windchill Dew Point Humidity Pressure Visibility Wind Dir Wind Speed Gust Speed Precip Events Conditions
12:15 AM 47.5 °F - 43.5 °F 86% 29.86 in 10.0 mi South 6.9 mph - N/A   Clear
12:35 AM 46.8 °F - 42.8 °F 86% 29.84 in 10.0 mi South 10.4 mph - N/A   Clear
12:55 AM 46.6 °F - 42.8 °F 87% 29.84 in 10.0 mi South 6.9 mph - N/A   Clear
1:15 AM 45.9 °F 42.9 °F 42.3 °F 87% 29.84 in 10.0 mi South 5.8 mph - N/A   Clear
1:35 AM 46.2 °F 41.7 °F 42.1 °F 85% 29.82 in 10.0 mi South 9.2 mph - N/A   Clear
1:55 AM 46.2 °F 40.8 °F 41.9 °F 85% 29.82 in 10.0 mi South 11.5 mph - N/A   Clear
2:15 AM 46.2 °F 41.7 °F 41.9 °F 85% 29.81 in 10.0 mi South 9.2 mph - N/A   Clear
2:35 AM 45.1 °F 39.9 °F 41.5 °F 87% 29.82 in 10.0 mi South 10.4 mph - N/A   Clear
2:55 AM 44.6 °F 38.8 °F 41.4 °F 88% 29.81 in 10.0 mi South 11.5 mph - N/A   Clear
3:15 AM 44.1 °F 38.6 °F 40.8 °F 88% 29.81 in 10.0 mi South 10.4 mph - N/A   Clear
3:35 AM 43.3 °F 38.1 °F 40.5 °F 90% 29.80 in 10.0 mi South 9.2 mph - N/A   Clear
3:55 AM 43.2 °F 38.4 °F 40.1 °F 89% 29.80 in 10.0 mi South 8.1 mph - N/A   Clear
4:15 AM 44.1 °F 38.6 °F 40.1 °F 86% 29.79 in 10.0 mi SSW 10.4 mph - N/A   Clear
4:35 AM 44.8 °F 39.9 °F 39.9 °F 83% 29.79 in 10.0 mi SSW 9.2 mph - N/A   Clear
4:55 AM 45.5 °F 40.3 °F 40.1 °F 81% 29.78 in 10.0 mi SSW 10.4 mph - N/A   Clear
5:15 AM 46.8 °F - 40.5 °F 79% 29.77 in 10.0 mi South 15.0 mph - N/A   Clear
5:55 AM 47.5 °F - 41.0 °F 78% 29.76 in 10.0 mi South 15.0 mph - N/A   Clear
6:15 AM 47.5 °F - 41.2 °F 79% 29.76 in 10.0 mi SSW 17.3 mph - N/A   Clear
6:35 AM 48.0 °F - 41.4 °F 78% 29.77 in 10.0 mi SSW 13.8 mph - N/A   Clear
6:55 AM 47.8 °F - 41.4 °F 78% 29.76 in 10.0 mi SSW 9.2 mph - N/A   Clear
7:15 AM 47.1 °F - 41.4 °F 80% 29.77 in 10.0 mi SSW 11.5 mph - N/A   Clear
7:35 AM 46.8 °F - 41.2 °F 81% 29.77 in 10.0 mi South 16.1 mph - N/A   Clear
7:55 AM 47.1 °F - 41.4 °F 80% 29.78 in 10.0 mi South 15.0 mph - N/A   Clear
8:15 AM 48.0 °F - 41.7 °F 79% 29.77 in 10.0 mi South 17.3 mph - N/A   Clear
8:35 AM 49.3 °F - 42.4 °F 77% 29.77 in 10.0 mi South 19.6 mph - N/A   Clear
8:55 AM 51.3 °F - 43.0 °F 73% 29.78 in 10.0 mi SSW 20.7 mph - N/A   Clear
9:15 AM 52.2 °F - 43.3 °F 72% 29.78 in 10.0 mi SSW 18.4 mph - N/A   Clear
9:35 AM 52.0 °F - 43.5 °F 73% 29.79 in 10.0 mi SSW 16.1 mph - N/A   Clear
9:55 AM 53.2 °F - 44.2 °F 72% 29.79 in 10.0 mi SSW 17.3 mph 21.9 mph N/A   Clear
10:15 AM 54.5 °F - 44.6 °F 69% 29.79 in 10.0 mi SSW 18.4 mph - N/A   Clear
10:35 AM 57.0 °F - 45.1 °F 64% 29.78 in 10.0 mi SSW 23.0 mph 28.8 mph N/A   Clear
10:55 AM 59.2 °F - 45.5 °F 60% 29.77 in 10.0 mi SSW 21.9 mph 29.9 mph N/A   Clear
11:55 AM 62.6 °F - 46.9 °F 57% 29.75 in 10.0 mi SSW 19.6 mph - N/A   Clear
12:35 PM 64.6 °F - 47.8 °F 55% 29.72 in 10.0 mi SSW 19.6 mph 28.8 mph N/A   Clear
12:55 PM 66.4 °F - 48.4 °F 52% 29.69 in 10.0 mi SSW 19.6 mph 32.2 mph N/A   Clear
1:15 PM 66.0 °F - 48.0 °F 52% 29.69 in 10.0 mi SSW 19.6 mph 26.5 mph N/A   Clear
1:35 PM 66.4 °F - 48.2 °F 52% 29.69 in 10.0 mi SSW 17.3 mph - N/A   Clear
2:15 PM 67.5 °F - 48.7 °F 51% 29.68 in 10.0 mi SSW 13.8 mph 19.6 mph N/A   Clear
2:35 PM 68.4 °F - 48.6 °F 49% 29.69 in 10.0 mi SSW 12.7 mph 21.9 mph N/A   Clear
2:55 PM 68.5 °F - 48.2 °F 48% 29.69 in 10.0 mi SSW 13.8 mph - N/A   Clear
3:15 PM 68.7 °F - 48.4 °F 48% 29.68 in 10.0 mi SSW 11.5 mph 18.4 mph N/A   Clear
3:35 PM 69.1 °F - 48.6 °F 48% 29.69 in 10.0 mi SSW 10.4 mph - N/A   Clear
3:55 PM 70.2 °F - 48.7 °F 46% 29.69 in 10.0 mi SW 13.8 mph 18.4 mph N/A   Clear
4:15 PM 71.2 °F - 47.8 °F 43% 29.69 in 10.0 mi SW 11.5 mph - N/A   Clear
4:35 PM 70.0 °F - 47.5 °F 45% 29.69 in 10.0 mi SSW 11.5 mph - N/A   Clear
4:55 PM 68.2 °F - 48.6 °F 49% 29.70 in 10.0 mi SSW 10.4 mph - N/A   Clear
5:15 PM 67.3 °F - 47.8 °F 50% 29.70 in 10.0 mi SSW 11.5 mph - N/A   Clear
5:35 PM 65.3 °F - 46.8 °F 51% 29.71 in 10.0 mi SSW 9.2 mph - N/A   Clear
5:55 PM - - - N/A% 29.72 in 10.0 mi SSW 10.4 mph - N/A   Unknown
6:15 PM 63.9 °F - 46.0 °F 52% 29.72 in 10.0 mi South 9.2 mph - N/A   Clear
6:35 PM 61.5 °F - 46.8 °F 58% 29.72 in 10.0 mi SSW 6.9 mph - N/A   Clear
6:55 PM 60.6 °F - 46.2 °F 59% 29.73 in 10.0 mi South 6.9 mph - N/A   Clear
7:15 PM 60.1 °F - 46.0 °F 60% 29.73 in 10.0 mi South 11.5 mph - N/A   Clear
7:35 PM 61.0 °F - 45.5 °F 57% 29.73 in 10.0 mi South 9.2 mph - N/A   Clear
7:55 PM 60.6 °F - 45.3 °F 57% 29.73 in 10.0 mi South 10.4 mph - N/A   Clear
8:15 PM 60.6 °F - 45.1 °F 57% 29.74 in 10.0 mi SSW 9.2 mph - N/A   Clear
8:35 PM 61.7 °F - 44.1 °F 52% 29.75 in 10.0 mi SSW 11.5 mph - N/A   Clear
8:55 PM 61.9 °F - 43.7 °F 51% 29.75 in 10.0 mi SSW 9.2 mph - N/A   Clear
9:15 PM 59.5 °F - 44.6 °F 58% 29.76 in 10.0 mi SW 8.1 mph - N/A   Clear
9:35 PM 57.7 °F - 45.3 °F 63% 29.77 in 10.0 mi SSW 6.9 mph - N/A   Clear
9:55 PM 55.9 °F - 45.7 °F 68% 29.77 in 10.0 mi West 6.9 mph - N/A   Clear
10:15 PM 54.7 °F - 45.7 °F 72% 29.79 in 10.0 mi WNW 13.8 mph 17.3 mph N/A   Clear
10:35 PM 55.6 °F - 45.7 °F 69% 29.80 in 10.0 mi NW 9.2 mph - N/A   Clear
10:55 PM 55.2 °F - 43.9 °F 66% 29.81 in 10.0 mi NNW 10.4 mph - N/A   Clear
11:15 PM 56.1 °F - 39.0 °F 53% 29.83 in 10.0 mi NNW 9.2 mph - N/A   Clear
11:35 PM 55.9 °F - 37.2 °F 49% 29.83 in 10.0 mi NNW 9.2 mph - N/A   Clear
11:55 PM 55.6 °F - 35.2 °F 46% 29.83 in 10.0 mi North 13.8 mph - N/A   Clear